User: anonymous   Login
Location: Unspecified
(0.0000°N, 0.0000°E)
Time: 00:05:00
(UTC+00:00)
Language:

NNS O-2 - Orbit

View from above orbital plane
View from above orbital plane
View from above satellite
View from above satellite

Ground track
Ground track

The orbit data is extracted from the following two-line orbital elements,

1   965U 64083D   17172.49500615 +.00000029 +00000-0 +26761-4 0  9996
2   965 090.0077 191.6872 0041348 151.7554 321.5396 13.56702877599049
Epoch (UTC): 21 June 2017 11:52:48
Eccentricity: 0.0041348
inclination: 90.0077°
perigee height: 1017 km
apogee height: 1078 km
right ascension of ascending node: 191.6872°
argument of perigee: 151.7554°
revolutions per day: 13.56702877
mean anomaly at epoch: 321.5396°
orbit number at epoch: 59904

The dashed part of the orbit path shows where the satellite is in the earth's shadow,  

DLR